Find Kosmos-2416

NORAD ID: 28908 Int'l Des: 2005-048 Owner: KVR Country: RU operational
LEOCIRCULARPOLAR

Current View

Loading 3D Globe...

About Kosmos-2416

Kosmos-2416 (NORAD 28908) is a satellite launched Dec 21, 2005 by KVR of RU. It operates in LEO, CIRCULAR, POLAR orbit with a mass of 280.00 kg.

Upcoming Passes

Passes for default location (London). Set your location on the main map for personalized predictions.

Altitude History

Loading altitude history...

Two-Line Element Set

1 28908U 05048A 26195.20055090 .00000026 00000-0 95841-4 0 9997
2 28908 82.4696 290.3846 0009232 109.7799 274.6788 12.55601034942299
Epoch: Jul 14, 2026 • Age: 7 hours

Current Status

Altitude 1440.4 km
Apogee / Perigee N/A
Velocity 7.14 km/s
Sub-Earth Point 5.12°N, 6.97°E
Launch Date Dec 21, 2005
Age 20.5 years
Type other

Technical Details

Classification Payload
Mass 280.00 kg
Dry Mass 280.00 kg
Total Mass 280.00 kg
Length 1.60 m
Diameter 0.80 m
Span 7.00 m
Shape Cyl + Ant
Manufacturer NPOPMR
Bus Type Strela-3M
Phase Status In Orbit
Owner/State KVR/RU

Most Searched